timestamp,surface_pressure_avg,surface_temp_avg,battery_voltage,lat,long
2023-06-11 00:09:00+00:00,227.4215,4.7,12.89,47.84626,-54.09684
2023-06-11 00:19:00+00:00,230.72299999999998,4.8,12.73,47.84626,-54.09684
2023-06-11 00:29:00+00:00,229.793,4.9,12.73,47.84626,-54.09684
2023-06-11 00:39:00+00:00,229.2497,4.9,12.73,47.84626,-54.09684
2023-06-11 00:49:00+00:00,232.0581,4.99,12.73,47.84626,-54.09684
2023-06-11 00:59:00+00:00,234.8931,4.9,12.73,47.84626,-54.09684
2023-06-11 01:09:00+00:00,237.4414,4.7,12.73,47.84626,-54.09684
2023-06-11 01:19:00+00:00,240.7214,4.5,12.65,47.84626,-54.09684
2023-06-11 01:29:00+00:00,244.3281,4.29,12.65,47.84626,-54.09684
2023-06-11 01:39:00+00:00,246.4548,4.1,12.65,47.84626,-54.09684
2023-06-11 01:49:00+00:00,248.7897,4.12,12.65,47.84626,-54.09684
2023-06-11 01:59:00+00:00,256.5014,4.2,12.65,47.84626,-54.09684
2023-06-11 02:09:00+00:00,264.5231,4.3,12.65,47.84626,-54.09684
2023-06-11 02:19:01+00:00,265.2514,4.37,12.65,47.84626,-54.09684
2023-06-11 02:29:01+00:00,266.5398,4.39,12.65,47.84626,-54.09684
2023-06-11 02:39:01+00:00,278.3481,4.38,12.65,47.84626,-54.09684
2023-06-11 02:49:01+00:00,287.5714,4.36,12.65,47.84626,-54.09684
2023-06-11 02:59:01+00:00,292.3997,4.33,12.65,47.84626,-54.09684
2023-06-11 03:09:01+00:00,301.4597,4.3,12.65,47.84626,-54.09684
2023-06-11 03:19:00+00:00,312.998,4.2,12.65,47.84626,-54.09684
2023-06-11 03:29:00+00:00,317.2081,4.2,12.65,47.84626,-54.09684
2023-06-11 03:39:00+00:00,322.3279,4.2,12.65,47.84626,-54.09684
2023-06-11 03:49:00+00:00,335.7713,4.2,12.65,47.84626,-54.09684
2023-06-11 03:59:00+00:00,341.1445,4.31,12.65,47.84626,-54.09684
2023-06-11 04:09:00+00:00,339.6929,4.4,12.65,47.84626,-54.09684
2023-06-11 04:19:00+00:00,345.0179,4.2,12.57,47.84626,-54.09684
2023-06-11 04:29:00+00:00,352.2596,4.1,12.57,47.84626,-54.09684
2023-06-11 04:39:00+00:00,353.538,4.1,12.57,47.84626,-54.09684
2023-06-11 04:49:00+00:00,352.6763,4.1,12.57,47.84626,-54.09684
2023-06-11 04:59:00+00:00,356.7229,4.0,12.57,47.84626,-54.09684
2023-06-11 05:09:00+00:00,359.4396,3.9,12.57,47.84626,-54.09684
2023-06-11 05:19:00+00:00,356.3013,3.96,12.57,47.84626,-54.09684
2023-06-11 05:29:00+00:00,357.11800000000005,4.1,12.57,47.84626,-54.09684
2023-06-11 05:39:00+00:00,359.3729,4.22,12.57,47.84626,-54.09684
2023-06-11 05:49:00+00:00,355.2113,4.4,12.57,47.84626,-54.09684
2023-06-11 05:59:00+00:00,353.31300000000016,4.57,12.57,47.84626,-54.09684
2023-06-11 06:09:00+00:00,357.6029,4.26,12.57,47.84626,-54.09684
2023-06-11 06:19:00+00:00,359.9079,4.15,12.57,47.84626,-54.09684
2023-06-11 06:29:00+00:00,355.1746,4.4,12.57,47.84626,-54.09684
2023-06-11 06:39:00+00:00,355.1246,4.38,12.57,47.84626,-54.09684
2023-06-11 06:49:00+00:00,356.1395,4.3,12.57,47.84626,-54.09684
2023-06-11 06:59:00+00:00,350.4496,4.3,12.57,47.84626,-54.09684
2023-06-11 07:09:00+00:00,343.1646,4.36,12.57,47.84626,-54.09684
2023-06-11 07:19:00+00:00,338.0013,4.24,12.57,47.84626,-54.09684
2023-06-11 07:29:00+00:00,337.153,4.1,12.57,47.84626,-54.09684
2023-06-11 07:39:00+00:00,330.8880000000001,4.2,12.57,47.84626,-54.09684
2023-06-11 07:49:00+00:00,320.7279,4.3,12.57,47.84626,-54.09684
2023-06-11 07:59:00+00:00,314.2764,4.39,12.57,47.84626,-54.09684
2023-06-11 08:09:00+00:00,308.363,4.4,12.57,47.84626,-54.09684
2023-06-11 08:19:00+00:00,300.033,4.4,12.57,47.84626,-54.09684
2023-06-11 08:29:00+00:00,289.2681,4.47,12.57,47.84626,-54.09684
2023-06-11 08:39:00+00:00,284.1946,4.5,12.57,47.84626,-54.09684
2023-06-11 08:49:00+00:00,280.3914,4.5,12.57,47.84626,-54.09684
2023-06-11 08:59:00+00:00,271.7047,4.56,12.57,47.84626,-54.09684
2023-06-11 09:09:00+00:00,262.0847,4.6,12.57,47.84626,-54.09684
2023-06-11 09:19:00+00:00,258.3214,4.6,12.57,47.84626,-54.09684
2023-06-11 09:29:00+00:00,254.8748,4.66,12.57,47.84626,-54.09684
2023-06-11 09:39:00+00:00,246.9881,4.7,12.57,47.84626,-54.09684
2023-06-11 09:49:00+00:00,237.0364,4.7,12.57,47.84626,-54.09684
2023-06-11 09:59:00+00:00,235.0565,4.7,12.57,47.84626,-54.09684
2023-06-11 10:09:00+00:00,234.1531,4.7,12.57,47.84626,-54.09684
2023-06-11 10:19:00+00:00,227.5464,4.74,12.57,47.84626,-54.09684
2023-06-11 10:29:00+00:00,220.8615,4.8,12.57,47.84626,-54.09684
2023-06-11 10:39:00+00:00,224.1931,4.94,12.57,47.84626,-54.09684
2023-06-11 10:49:00+00:00,226.5781,5.28,12.57,47.84626,-54.09684
2023-06-11 10:59:00+00:00,221.0148,5.2,12.57,47.84626,-54.09684
2023-06-11 11:09:00+00:00,219.6831,5.0,12.57,47.84626,-54.09684
2023-06-11 11:19:00+00:00,226.4048,4.8,12.65,47.84626,-54.09684
2023-06-11 11:29:00+00:00,225.4164,4.74,12.65,47.84626,-54.09684
2023-06-11 11:39:00+00:00,220.3314,4.7,12.65,47.84626,-54.09684
2023-06-11 11:49:00+00:00,225.2181,4.6,12.65,47.84626,-54.09684
2023-06-11 11:59:00+00:00,230.0781,4.6,12.65,47.84626,-54.09684
2023-06-11 12:09:00+00:00,225.1614,4.7,12.65,47.84626,-54.09684
2023-06-11 12:19:00+00:00,221.2831,4.7,12.89,47.84626,-54.09684
2023-06-11 12:29:00+00:00,226.5314,4.7,12.89,47.84626,-54.09684
2023-06-11 12:39:00+00:00,228.8664,4.77,12.89,47.84626,-54.09684
2023-06-11 12:49:00+00:00,226.6747,4.7,12.89,47.84626,-54.09684
2023-06-11 12:59:00+00:00,228.2431,4.69,12.89,47.84626,-54.09684
2023-06-11 13:09:00+00:00,232.7531,4.7,12.89,47.84626,-54.09684
2023-06-11 13:19:00+00:00,233.7681,4.89,13.29,47.84626,-54.09684
2023-06-11 13:29:00+00:00,234.8248,5.18,13.29,47.84626,-54.09684
2023-06-11 13:39:00+00:00,237.6964,5.2,13.29,47.84626,-54.09684
2023-06-11 13:49:00+00:00,236.1631,5.2,13.29,47.84626,-54.09684
2023-06-11 13:59:00+00:00,234.9664,5.28,13.29,47.84626,-54.09684
2023-06-11 14:09:00+00:00,241.4648,5.37,13.29,47.84626,-54.09684
2023-06-11 14:19:00+00:00,247.1564,5.4,13.44,47.84626,-54.09684
2023-06-11 14:29:00+00:00,245.9731,5.4,13.44,47.84626,-54.09684
2023-06-11 14:39:00+00:00,247.2164,5.4,13.44,47.84626,-54.09684
2023-06-11 14:49:00+00:00,256.8514,5.3,13.44,47.84626,-54.09684
2023-06-11 14:59:00+00:00,263.6897,5.28,13.44,47.84626,-54.09684
2023-06-11 15:09:00+00:00,266.9897,5.23,13.44,47.84626,-54.09684
2023-06-11 15:19:00+00:00,274.7364,5.29,13.68,47.84626,-54.09684
2023-06-11 15:29:00+00:00,286.4832,5.2,13.68,47.84626,-54.09684
2023-06-11 15:39:00+00:00,287.783,5.4,13.68,47.84626,-54.09684
2023-06-11 15:49:00+00:00,289.3364,5.3,13.68,47.84626,-54.09684
2023-06-11 15:59:00+00:00,298.9597,5.3,13.68,47.84626,-54.09684
2023-06-11 16:09:00+00:00,307.8747,5.4,13.68,47.84626,-54.09684
2023-06-11 16:19:01+00:00,308.5797,5.4,13.68,47.84626,-54.09684
2023-06-11 16:29:01+00:00,313.1463,5.2,13.68,47.84626,-54.09684
2023-06-11 16:39:01+00:00,319.3214,5.1,13.68,47.84626,-54.09684
2023-06-11 16:49:01+00:00,322.5363,5.15,13.68,47.84626,-54.09684
2023-06-11 16:59:01+00:00,324.6164,5.16,13.68,47.84626,-54.09684
2023-06-11 17:09:01+00:00,331.1363,5.18,13.68,47.84626,-54.09684
2023-06-11 17:19:00+00:00,333.2047,5.2,13.53,47.84626,-54.09684
2023-06-11 17:29:00+00:00,334.3396,5.2,13.53,47.84626,-54.09684
2023-06-11 17:39:00+00:00,336.4913,5.2,13.53,47.84626,-54.09684
2023-06-11 17:49:00+00:00,338.0414,5.1,13.53,47.84626,-54.09684
2023-06-11 17:59:00+00:00,335.2996,5.03,13.53,47.84626,-54.09684
2023-06-11 18:09:00+00:00,338.2947,5.0,13.53,47.84626,-54.09684
2023-06-11 18:19:01+00:00,341.6163,5.08,13.92,47.84626,-54.09684
2023-06-11 18:29:01+00:00,341.413,5.26,13.92,47.84626,-54.09684
2023-06-11 18:39:01+00:00,339.7947,5.8,13.92,47.84626,-54.09684
2023-06-11 18:49:01+00:00,340.293,5.88,13.92,47.84626,-54.09684
2023-06-11 18:59:01+00:00,340.1964,5.8,13.92,47.84626,-54.09684
2023-06-11 19:09:01+00:00,338.0729,5.73,13.92,47.84626,-54.09684
2023-06-11 19:19:00+00:00,337.1296,5.6,13.76,47.84626,-54.09684
2023-06-11 19:29:00+00:00,336.7363,5.52,13.76,47.84626,-54.09684
2023-06-11 19:39:00+00:00,331.42800000000005,5.8,13.76,47.84626,-54.09684
2023-06-11 19:49:00+00:00,325.308,5.7,13.76,47.84626,-54.09684
2023-06-11 19:59:00+00:00,320.8846,5.5,13.76,47.84626,-54.09684
2023-06-11 20:09:00+00:00,316.1413,5.49,13.76,47.84626,-54.09684
2023-06-11 20:19:00+00:00,308.5764,5.6,13.68,47.84626,-54.09684
2023-06-11 20:29:00+00:00,303.6597,5.6,13.68,47.84626,-54.09684
2023-06-11 20:39:00+00:00,296.5696,5.59,13.68,47.84626,-54.09684
2023-06-11 20:49:00+00:00,287.7864,5.5,13.68,47.84626,-54.09684
2023-06-11 20:59:00+00:00,281.6364,5.1,13.68,47.84626,-54.09684
2023-06-11 21:09:00+00:00,274.438,5.29,13.68,47.84626,-54.09684
2023-06-11 21:19:00+00:00,267.3464,5.6,13.53,47.84626,-54.09684
2023-06-11 21:29:00+00:00,261.2898,5.4,13.53,47.84626,-54.09684
2023-06-11 21:39:00+00:00,257.6964,5.0,13.53,47.84626,-54.09684
2023-06-11 21:49:00+00:00,252.2131,4.9,13.53,47.84626,-54.09684
2023-06-11 21:59:00+00:00,247.658,4.9,13.53,47.84626,-54.09684
2023-06-11 22:09:00+00:00,242.5864,5.09,13.53,47.84626,-54.09684
2023-06-11 22:19:00+00:00,238.3464,5.3,13.37,47.84626,-54.09684
2023-06-11 22:29:00+00:00,236.3931,5.3,13.37,47.84626,-54.09684
2023-06-11 22:39:00+00:00,234.9431,5.1,13.37,47.84626,-54.09684
2023-06-11 22:49:00+00:00,232.8248,5.0,13.37,47.84626,-54.09684
2023-06-11 22:59:00+00:00,229.6847,4.86,13.37,47.84626,-54.09684
2023-06-11 23:09:00+00:00,228.4014,4.7,13.37,47.84626,-54.09684
2023-06-11 23:19:00+00:00,229.2314,4.69,13.05,47.84626,-54.09684
2023-06-11 23:29:00+00:00,229.0748,4.6,13.05,47.84626,-54.09684
2023-06-11 23:39:00+00:00,229.9014,4.6,13.05,47.84626,-54.09684
2023-06-11 23:49:00+00:00,231.9081,4.5,13.05,47.84626,-54.09684
2023-06-11 23:59:00+00:00,231.5648,4.5,13.05,47.84626,-54.09684
